Weather History for KDUJ - February, 2015

Change the Weather History Date:

Saturday, February 21, 2015

  Actual Average Record
Temperature  
Mean Temperature 13 °F 28 °F  
Max Temperature 24 °F 36 °F 60 °F (1983)
Min Temperature 2 °F 19 °F -8 °F (1968)
Degree Days  
Heating Degree Days 52 37  
Month to date heating degree days 1053 825  
Since 1 July heating degree days 4971 4769  
Cooling Degree Days 0 0  
Month to date cooling degree days 0 0  
Year to date cooling degree days 0 0  
Moisture  
Dew Point 13 °F    
Average Humidity 71    
Maximum Humidity 96    
Minimum Humidity 46    
Precipitation  
Precipitation 0.25 in 0.09 in 8.43 in (1999)
Month to date precipitation 1.17 1.70  
Sea Level Pressure  
Sea Level Pressure 30.00 in    
Wind  
Wind Speed 9 mph (ESE)    
Max Wind Speed 18 mph    
Max Gust Speed 24 mph    
Visibility 3 miles    
Events Fog , Snow    
T = Trace of Precipitation, MM = Missing Value Source: NWS Daily Summary

Daily Weather History Graph

Daily Weather History Graph

Search for Another Location

Airport or City:

Trip Planner

Search our weather history database for the weather conditions in past years. The results will help you decide how hot, cold, wet, or windy it might be!

Date:

Astronomy

Feb. 21, 2015 Rise Set
Actual Time 7:02 AM EST 5:56 PM EST
Civil Twilight 6:34 AM EST 6:24 PM EST
Nautical Twilight 6:02 AM EST 6:56 PM EST
Astronomical Twilight 5:30 AM EST 7:28 PM EST
Moon 8:30 AM EST (2/21) 9:32 PM EST (2/21)
Length of Visible Light 11h 50m
Length of Day
10h 54m
Waxing Crescent, 11% of the Moon is Illuminated
Feb 21
Waxing Crescent
Feb 25
First Quarter
Mar 5
Full
Mar 13
Last Quarter
Mar 20
New

Hourly Weather History & Observations

Time (EST) Temp. Windchill Dew Point Humidity Pressure Visibility Wind Dir Wind Speed Gust Speed Precip Events Conditions
12:53 AM 5.0 °F -9.1 °F -9.0 °F 52% 30.28 in 10.0 mi SE 9.2 mph - N/A   Overcast
1:53 AM 7.0 °F -6.6 °F -8.0 °F 51% 30.27 in 10.0 mi SE 9.2 mph - N/A   Overcast
2:53 AM 8.1 °F -7.0 °F -8.0 °F 48% 30.24 in 10.0 mi SE 11.5 mph - N/A   Overcast
3:53 AM 9.0 °F -5.9 °F -7.1 °F 48% 30.21 in 10.0 mi ESE 11.5 mph - N/A   Overcast
4:53 AM 10.9 °F -4.7 °F -7.1 °F 44% 30.19 in 10.0 mi SE 13.8 mph - N/A   Overcast
5:53 AM 12.0 °F -1.3 °F -5.1 °F 46% 30.18 in 10.0 mi ESE 10.4 mph - N/A   Overcast
6:53 AM 12.0 °F -1.3 °F -5.1 °F 46% 30.16 in 10.0 mi ESE 10.4 mph - N/A   Overcast
7:53 AM 12.9 °F -1.6 °F -4.0 °F 47% 30.14 in 10.0 mi SE 12.7 mph - N/A   Overcast
8:24 AM 12.9 °F -1.6 °F 1.0 °F 59% 30.02 in 1.8 mi SE 12.7 mph - N/A   Haze
8:30 AM 12.0 °F -3.4 °F 3.0 °F 67% 30.03 in 0.8 mi SE 13.8 mph - 0.00 in Snow Light Snow
8:53 AM 10.9 °F -5.4 °F 6.1 °F 81% 30.14 in 0.5 mi SE 15.0 mph - 0.00 in Snow Snow
9:53 AM 12.9 °F -1.6 °F 8.1 °F 81% 30.11 in 0.5 mi SE 12.7 mph - 0.00 in Snow Snow
10:53 AM 14.0 °F -2.5 °F 9.0 °F 80% 30.09 in 0.5 mi SE 17.3 mph - 0.00 in Snow Snow
11:53 AM 15.1 °F 1.8 °F 10.9 °F 84% 30.08 in 0.8 mi SE 11.5 mph - 0.00 in Snow Light Snow
12:40 PM 17.1 °F 4.3 °F 12.0 °F 81% 29.94 in 0.8 mi SE 11.5 mph - 0.00 in Snow Light Snow
12:53 PM 17.1 °F 4.3 °F 12.9 °F 84% 30.04 in 0.2 mi ESE 11.5 mph - 0.00 in Fog , Snow Light Snow
1:12 PM 17.1 °F 5.0 °F 12.9 °F 84% 29.92 in 0.5 mi SE 10.4 mph - 0.00 in Fog , Snow Light Snow
1:29 PM 18.0 °F 6.9 °F 14.0 °F 84% 29.91 in 1.0 mi SE 9.2 mph - 0.00 in   Overcast
1:39 PM 18.0 °F 5.4 °F 14.0 °F 84% 29.91 in 0.5 mi ESE 11.5 mph - 0.00 in Fog Light Freezing Fog
1:53 PM 18.0 °F 6.9 °F 14.0 °F 84% 30.00 in 0.2 mi SE 9.2 mph - 0.00 in Fog , Snow Light Snow
2:02 PM 18.0 °F 6.1 °F 14.0 °F 84% 29.89 in 0.5 mi SE 10.4 mph - 0.00 in Fog , Snow Light Snow
2:16 PM 19.0 °F 6.8 °F 15.1 °F 85% 29.89 in 0.5 mi ESE 11.5 mph - 0.00 in Fog , Snow Light Snow
2:30 PM 19.0 °F 7.5 °F 16.0 °F 88% 29.88 in 0.2 mi ESE 10.4 mph - 0.00 in Fog , Snow Light Snow
2:40 PM 19.0 °F 7.5 °F 16.0 °F 88% 29.88 in 0.2 mi ESE 10.4 mph - 0.00 in Fog , Snow Light Snow
2:53 PM 19.9 °F 9.3 °F 16.0 °F 85% 29.98 in 0.2 mi ESE 9.2 mph - 0.00 in Fog , Snow Light Snow
3:07 PM 19.9 °F 10.1 °F 16.0 °F 85% 29.88 in 0.2 mi SE 8.1 mph - 0.00 in Fog , Snow Light Snow
3:49 PM 19.4 °F 8.6 °F 17.6 °F 93% 29.88 in 0.8 mi ESE 9.2 mph - 0.10 in Snow Light Snow
3:53 PM 19.9 °F 9.3 °F 17.1 °F 89% 29.98 in 1.0 mi ESE 9.2 mph - 0.10 in   Overcast
4:12 PM 21.0 °F 13.4 °F 18.0 °F 88% 29.89 in 0.8 mi SE 5.8 mph - 0.01 in Snow Light Snow
4:45 PM 21.9 °F 14.5 °F 19.0 °F 89% 29.88 in 0.2 mi SE 5.8 mph - 0.03 in Fog , Snow Light Snow
4:53 PM 21.9 °F 14.5 °F 19.0 °F 89% 29.98 in 0.2 mi ESE 5.8 mph - 0.03 in Fog , Snow Light Snow
5:06 PM 21.9 °F 14.5 °F 19.0 °F 89% 29.89 in 0.5 mi ESE 5.8 mph - 0.01 in Fog , Snow Light Snow
5:34 PM 21.9 °F 12.5 °F 19.0 °F 89% 29.89 in 0.2 mi ESE 8.1 mph - 0.02 in Fog , Snow Light Snow
5:53 PM 21.9 °F 13.4 °F 19.0 °F 89% 29.99 in 0.2 mi ESE 6.9 mph - 0.03 in Fog , Snow Light Snow
6:03 PM 21.9 °F 13.4 °F 19.0 °F 89% 29.90 in 0.5 mi ESE 6.9 mph - 0.01 in Fog , Snow Light Snow
6:27 PM 21.9 °F 12.5 °F 19.0 °F 89% 29.90 in 1.0 mi ESE 8.1 mph - 0.03 in Snow Light Snow
6:39 PM 21.9 °F 12.5 °F 19.0 °F 89% 29.91 in 0.8 mi ESE 8.1 mph - 0.03 in Snow Light Snow
6:53 PM 21.9 °F 13.4 °F 19.0 °F 89% 30.00 in 0.5 mi ESE 6.9 mph - 0.04 in Fog , Snow Light Snow
7:08 PM 21.9 °F 13.4 °F 19.0 °F 89% 29.92 in 1.0 mi ESE 6.9 mph - 0.01 in Snow Light Snow
7:17 PM 21.9 °F 14.5 °F 19.0 °F 89% 29.92 in 0.8 mi ESE 5.8 mph - 0.02 in Snow Light Snow
7:53 PM 21.9 °F 17.2 °F 19.9 °F 92% 30.02 in 1.0 mi ESE 3.5 mph - 0.04 in Snow Light Snow
8:18 PM 21.9 °F 15.7 °F 19.9 °F 92% 29.94 in 2.0 mi East 4.6 mph - 0.01 in Snow Light Snow
8:41 PM 23.0 °F 17.0 °F 19.9 °F 88% 29.94 in 3.0 mi ESE 4.6 mph - 0.01 in   Overcast
8:53 PM 23.0 °F 18.4 °F 21.0 °F 92% 30.03 in 6.0 mi ESE 3.5 mph - 0.01 in   Overcast
9:11 PM 23.0 °F 17.0 °F 21.0 °F 92% 29.95 in 7.0 mi SE 4.6 mph - N/A   Overcast
9:53 PM 23.0 °F 18.4 °F 21.0 °F 92% 30.05 in 6.0 mi ESE 3.5 mph - N/A   Overcast
10:53 PM 24.1 °F 19.7 °F 21.9 °F 91% 30.06 in 4.0 mi NNW 3.5 mph - N/A   Overcast
11:39 PM 24.1 °F - 21.9 °F 91% 29.99 in 2.0 mi Calm Calm - N/A   Overcast
11:46 PM 24.1 °F - 21.9 °F 91% 29.99 in 3.0 mi Calm Calm - N/A   Overcast
11:53 PM 24.1 °F - 21.0 °F 88% 30.07 in 5.0 mi Calm Calm - N/A   Overcast